Regional Weather Roundup
Issued by NWS

Home | Current Version | Previous Version | Graphics & Text | Print | Product List | Glossary On
Versions: 1 2 3 4 5 6 7 8 9 10 11 12 13 14 15 16 17 18 19 20 21 22 23 24 25 26 27 28 29 30 31 32 33 34 35 36 37 38 39 40 41 42 43 44 45 46 47 48 49 50
000
ASUS43 KIND 010909
RWRIN

WEATHER ROUNDUP FOR INDIANA
NATIONAL WEATHER SERVICE INDIANAPOLIS IN
500 AM EDT WED OCT 01 2014

NOTE: "FAIR" INDICATES FEW OR NO CLOUDS BELOW 12,000 FEET WITH NO
SIGNIFICANT WEATHER AND/OR OBSTRUCTIONS TO VISIBILITY.

* - STATION DOES NOT REPORT WEATHER SUCH AS PRECIPITATION OR FOG.

+ - STATION NOT QUALITY CONTROLLED BY THE NATIONAL WEATHER SERVICE.
    USE DATA WITH CAUTION...ESPECIALLY DEWPOINT AND RELATIVE
    HUMIDITY OBSERVATIONS.

INZ001>003-010>013-019-020-011000-
NORTHWEST INDIANA

CITY           SKY/WX    TMP DP  RH WIND       PRES   REMARKS
GARY /AIRPORT/ CLEAR     46  43  91 CALM      30.02R
KNOX *+        PTCLDY    40  39  93 CALM      30.00S
LA PORTE +     CLOUDY    52  52  99 CALM      30.01S
MICHIGAN CITY+ CLOUDY    50  50 100 CALM      30.02R
MONTICELLO +   FAIR      46  45  99 CALM      30.00R
RENSSELAER +   FOG       43  43 100 CALM      30.01R VSB 1/2
VALPARAISO     CLEAR     45  43  93 NE3       30.01R

$$

LMZ046-743>745-011000-
SOUTHERN LAKE MICHIGAN

STATION/POSITION TIME  TEMP WIND        PRES
                       AIR  DIR/SP/G
                 (UTC) (F)  (DEG/KT/KT) (MB)
MICHIGAN CITY    0900   53   90/  3/  4   N/A

$$

INZ004-005-014>016-021>024-011000-
NORTH CENTRAL INDIANA

CITY           SKY/WX    TMP DP  RH WIND       PRES   REMARKS
LOGANSPORT +     N/A     41  39  93 CALM      30.01S FOG
PERU/GRISSOM   CLEAR     46  46 100 E5        30.00R
ROCHESTER +    CLEAR     46  46 100 CALM      30.01R
SOUTH BEND     NOT AVBL
WARSAW +       MOCLDY    50  48  93 E6        30.01S

$$

INZ006>009-017-018-025>027-011000-
NORTHEAST INDIANA

CITY           SKY/WX    TMP DP  RH WIND       PRES   REMARKS
ANGOLA *+      CLOUDY    52  48  87 E3        30.02S
AUBURN +       FOG       45  43  93 CALM      30.02F VSB 1/2
FORT WAYNE     PTCLDY    47  45  93 E3        30.02S
HUNTINGTON +   CLEAR     46  46  98 CALM      30.00S

$$

INZ028-029-035-036-043>045-051>053-011000-
WEST CENTRAL INDIANA

CITY           SKY/WX    TMP DP  RH WIND       PRES   REMARKS
GREENCASTLE +  CLEAR     48  46  93 CALM      29.99S
LAFAYETTE      CLEAR     46  44  93 NE5       29.99S
TERRE HAUTE    CLEAR     52  48  86 E5        29.97S

$$

INZ030>032-037>040-046>048-054>057-064-065-011000-
CENTRAL INDIANA

CITY           SKY/WX    TMP DP  RH WIND       PRES   REMARKS
CP ATTERBURY + CLEAR     46  45  93 CALM      29.99S
FRANKFORT +    CLEAR    N/A N/A N/A E5        30.00S
GREENWOOD *+   CLEAR     48  43  81 CALM      29.99
INDIANAPOLIS   CLEAR     50  45  83 E6        29.99R
-EAGLE CREEK   CLEAR     48  45  89 E3        29.98S
KOKOMO *+      CLEAR     43  39  87 CALM      30.01R
MARION +       CLEAR     42  42  98 CALM      30.01R
MT COMFORT *+  CLEAR     41 N/A N/A CALM      29.99F
SHELBYVILLE    CLEAR     47  44  90 NE3       29.98F
ZIONSVILLE +   CLEAR     42  40  90 CALM      29.99F

$$

INZ033-034-041-042-049-050-058-059-011000-
EAST CENTRAL INDIANA

CITY           SKY/WX    TMP DP  RH WIND       PRES   REMARKS
MUNCIE         FOG       42  41  96 E3        30.00S VSB 1/2

$$

INZ060-061-067>069-081>083-085>088-011000-
SOUTHWEST INDIANA

CITY           SKY/WX    TMP DP  RH WIND       PRES   REMARKS
EVANSVILLE     CLEAR     62  58  86 NE3       29.94R
WASHINGTON +   CLEAR     56  55  97 E5        29.95R

$$

INZ062-063-066-070>080-084-089>092-011000-
SOUTH CENTRAL AND SOUTHEAST INDIANA

CITY           SKY/WX    TMP DP  RH WIND       PRES   REMARKS
BLOOMINGTON    CLEAR     52  48  86 E6        29.97F

$$



USA.gov is the U.S. government's official web portal to all federal, state and local government web resources and services.